METEOR 2-8 DEB

Satellite information

Favourite Embed

Satellite Type and Status

DEBRISIN ORBIT

Key statistics

Satellite METEOR 2-8 DEB at a glance.

Uptime

15750

Days in orbit

Revolutions

≈ 14.3

Per day

Orbit

LEO

Low Earth Orbit

Inclination

82.5

Latest

Satellite identification and parameters

Extended collection of information and parameters for METEOR 2-8 DEB.

Object identification

Identified? True

Debris? True

Object name: METEOR 2-8 DEB

International designator: 1982-025V

Object number (NORAD): 36335

Object ID (CCSDS): 36335

Country: COMMONWEALTH OF INDEPENDENT STATES (CIS)

Current information (Y/N): Y

RCS size: SMALL

Orbital parameters

Period: 100.721 minutes

Inclination: 82.4978 deg

SMA: 7170.911 km

Apoapsis: 821.582 km

Periapsis: 763.971 km

RAAN: 152.9243 deg

Eccentricy: 0.004017

Argument of periapsis: 122.9929 deg

Mean anomaly: 237.5128 deg

Mean motion: 14.29687904 rev/day

Mean motion (dot): 0.0000723 rev/day2

B* drag term: 0.0027889 1/REarth

Two-line elements (TLE)

Creation date: May 4, 2025, 5:21 p.m.

Reference frame: TEME

Reference center: EARTH

Epoch: May 4, 2025, 8:20 a.m. UTC

TLE line 0: 0 METEOR 2-8 DEB

TLE line 1: 1 36335U 82025V 25124.34775460 .00007230 00000-0 27889-2 0 9995

TLE line 2: 2 36335 82.4978 152.9243 0040170 122.9929 237.5128 14.29687904 51736

Live tracking on map

Real-time ground track for satellite METEOR 2-8 DEB.

In-orbit conjunctions

A list of the most updated potential collisions computed for object METEOR 2-8 DEB.

Target Orbit TCA Probability of collision Miss distance Type
CZ-6A DEB SSO 2025-02-02 12:41:04 0.0001200137 285.0 (m) DEBRIS
SL-8 R/B LEO 2025-02-01 15:47:15 0.0001972079 181.0 (m) ROCKET BODY
SL-24 R/B SSO 2024-10-02 03:57:37 0.0001451013 248.0 (m) ROCKET BODY
FEDSAT SSO 2024-08-24 03:13:33 0.0002490052 539.0 (m) PAYLOAD
AAU CUBESAT SSO 2024-08-12 10:03:32 0.0002020907 479.0 (m) PAYLOAD

Associated space launch

Second generation soviet meteorological satellite

METEOR 2-8 DEB was lifted into orbit during the mission ‘Tsiklon-3 | Meteor-2 8’, on board a Tsiklon-3 space rocket.

The launch took place on March 25, 1982, 9:50 a.m. from 32/1.

For more information about the launch, click the button.

Launch to space Tsiklon-3 | Meteor-2 8
Tsiklon-3 | Meteor-2 8

Agency: N/A

Status: Launch Successful

Launch date: March 25, 1982, 9:50 a.m. UTC

Rocket: Tsiklon-3

Launch pad: 32/1

Location: Plesetsk Cosmodrome, Russian Federation

...

Latest news about this satellite

There are no fresh news available about this satellite. Check back as we update our databases every day.


Newsletter sign-up

Weekly statistics, charts and insights to help you stay on top of the space industry.